Regional Weather Roundup
Issued by NWS Grand Forks, ND

Home | Current Version | Previous Version | Graphics & Text | Print | Product List | Glossary On
Versions: 1 2 3 4 5 6 7 8 9 10 11 12 13 14 15 16 17 18 19 20 21 22 23 24 25 26 27 28 29 30 31 32 33 34 35 36 37 38 39 40 41 42 43 44 45 46 47 48 49 50
000
ASUS43 KFGF 262310
RWRFGF
PRAIRIE TO PINES  WEATHER ROUNDUP
NATIONAL WEATHER SERVICE EASTERN NORTH DAKOTA/GRAND FORKS ND
500 PM CST MON JAN 26 2015

 **SATELLITE DATA USED TO AUGMENT SKY COVER AT AUTOMATED STATIONS**
 *****  WEATHER ACROSS EASTERN NORTH DAKOTA  *****

CITY           SKY/WX    TMP DP  RH WIND       PRES   REMARKS
GRAND FORKS    PTCLDY    30  25  81 N9        29.95R WCI  22
GRAND FRKS AFB CLEAR     31  26  83 NE6       29.95R WCI  25
DEVILS LAKE    CLOUDY    36  30  80 W6        29.93S
FARGO          PTCLDY    34  28  79 N16       29.95R WCI  24
WAHPETON ARPT  PTCLDY    34  30  86 N12       29.94R
$$

 ***** WEATHER ACROSS CENTRAL AND WESTERN NORTH DAKOTA  *****

CITY           SKY/WX    TMP DP  RH WIND       PRES   REMARKS
BISMARCK       PTCLDY    45  32  60 NE5       29.97S
MINOT          CLEAR     42  31  64 CALM      29.93S
JAMESTOWN      CLEAR     37  31  78 NW7       29.95R
MINOT AFB      CLEAR     39  39  99 CALM      29.93S
GARRISON         N/A     43  37  79 CALM      29.94F
WILLISTON      MOCLDY    46  32  58 S5        29.92S
DICKINSON      MOCLDY    50  33  52 SW7       29.92F
HETTINGER      CLEAR     52  35  52 W6        29.97S
$$

 *****  OTHER AIRPORT OBSERVATIONS IN OUR AREA  *****

CITY           SKY/WX    TMP DP  RH WIND       PRES   REMARKS
WALHALLA         N/A     32  32 100 N7        29.95R
GRAFTON AIRPOR NOT AVBL
VALLEY CITY AR FAIR      36  36 100 N8        29.94R
CANDO          CLOUDY    36  30  80 NW6       29.94R
CAVALIER APRT  FAIR      28  27  93 NE8       29.95S WCI  20
GWINNER        CLEAR     39  36  87 NW9       29.96R
SHEYENNE NWR     N/A     40  32  72 N8        29.95S
ROLLA          CLOUDY    36  32  87 NW8       29.93R
 ***** THE ABOVE OBSERVATIONS ARE NON NWS ARE NOT QUALITY
       CONTROLLED AND MAY MIS-REPORT RAIN FOR SNOW...
$$

  *****  WEATHER ACROSS NORTHERN MINNESOTA  *****

CITY           SKY/WX    TMP DP  RH WIND       PRES   REMARKS
FLAG ISLAND    CLOUDY    27  21  80 NW15      29.88R WCI  15
WARROAD        CLOUDY    28  23  80 NW9       29.90R WCI  20
ROSEAU         CLOUDY    28  23  80 NW10      29.91R WCI  19
HALLOCK        CLOUDY    28  25  86 N12       29.95R WCI  18
THF RVR FALLS  CLOUDY    28  25  86 N13       29.92R WCI  18
BAUDETTE       CLOUDY    28  21  75 N14       29.87R WCI  17
WASKISH        CLOUDY    28  25  86 N8        29.87R WCI  20
CROOKSTON      CLOUDY    28  25  86 N16       29.96R WCI  17
STEPHEN NDAWN    N/A     28  25  86 N9          N/A  WCI  20
GREENBUSH NDAW   N/A     27  25  93 NW12        N/A  WCI  16
$$
  *****  WEATHER ACROSS CENTRAL AND WEST MINNESOTA  *****

CITY           SKY/WX    TMP DP  RH WIND       PRES   REMARKS
FOSSTON        CLOUDY    28  25  86 NW13      29.91R WCI  18
BEMIDJI        CLOUDY    31  26  83 NW12      29.85R WCI  22
PARK RAPIDS    CLOUDY    33  28  81 N17       29.84R WCI  22
ELBOW LAKE     MOCLDY    34  31  89 N13G20    29.90R WCI  25
WADENA         CLOUDY    32  27  80 NW14G24   29.86R WCI  22
DETROIT LAKES  CLOUDY    30  28  93 N18       29.90R WCI  18
MOORHEAD       MOCLDY    34  32  93 N13       29.96R WCI  25
FERGUS FALLS   CLOUDY    34  28  80 N12       29.93R
MORRIS MN      PTCLDY    37  34  87 NW14      29.89R
STAPLES        CLOUDY    36  28  75 NW14      29.84R
$$
  *****  WEATHER ELSEWHERE ACROSS MINNESOTA  *****

CITY           SKY/WX    TMP DP  RH WIND       PRES   REMARKS
DULUTH         CLOUDY    31  27  85 N8        29.76R WCI  23
INTRNTL FALLS  CLOUDY    28  23  81 NW9       29.84R WCI  19
ELY            CLOUDY    25  25 100 N3        29.78R
CLOQUET        FLURRIES  34  30  86 N9        29.77R
WHEATON        PTCLDY    37  30  75 NW12      29.94R
BRAINERD       CLOUDY    36  28  73 NW14      29.82R
HIBBING        CLOUDY    31  25  78 N15       29.79R WCI  20
ALEXANDRIA     CLOUDY    35  29  78 NW23G31   29.88R WCI  23
SAINT CLOUD    CLOUDY    39  28  64 NW17G25   29.82R
MINNEAPOLIS    CLOUDY    41  32  70 W14       29.82R
$$

  *****  WEATHER ACROSS SOUTH DAKOTA  *****

CITY           SKY/WX    TMP DP  RH WIND       PRES   REMARKS
SIOUX FALLS    PTCLDY    44  36  73 NW13      29.94R
BROOKINGS      NOT AVBL
WATERTOWN      CLEAR     39  33  79 NW12      29.92R
HURON          CLEAR     42  35  76 NW8       29.98R
SISSETON         N/A     39  33  79 N13       29.91R
ABERDEEN       CLEAR     43  34  70 NW15      29.98R
MITCHELL       CLEAR     47  36  65 N8        29.99R
PIERRE         PTCLDY    54  29  38 W5        29.98S
MOBRIDGE       CLEAR     48  34  58 N6        29.96R
RAPID CITY     CLEAR     63  30  28 N8        30.01S
$$

  *****  SOME WEATHER IN NEARBY STATES *****

CITY           SKY/WX    TMP DP  RH WIND       PRES   REMARKS
GLASGOW MT     PTCLDY    50  37  61 CALM      29.89F
GREAT FALLS MT PTCLDY    64  30  27 SW20      29.93F
CHEYENNE WY    SUNNY     65  20  17 W10       30.22R
SCOTTSBLUFF NE CLEAR     62  34  35 W12       30.10F
OMAHA NE       PTCLDY    54  35  48 NW14      29.96R
DES MOINES IA  PTCLDY    50  37  61 NW22      29.86R
DAVENPORT IA   CLOUDY    32  27  81 SW6       29.82R
CHICAGO IL     LGT SNOW  25  21  85 S6        29.87R FOG     WCI  18
EAU CLAIRE WI  CLOUDY    27  24  89 NE3       29.79R FOG
LA CROSSE WI   CLOUDY    30  26  85 S5        29.81R
$$

  *****  SOME NATIONAL WEATHER *****

CITY           SKY/WX    TMP DP  RH WIND       PRES   REMARKS
LA GUARDIA NY  LGT SNOW  27  23  85 NE23G32   29.85R FOG     WCI  12
RALEIGH NC     CLOUDY    46  39  76 CALM      29.63R
ATLANTA GA     MOCLDY    38  28  67 NW20G25   29.89R
NEW ORLEANS LA PTCLDY    60  33  36 NW10      30.08R
OKLAHOMA CITY  PTCLDY    74  31  20 NW16      30.04R
ALBUQUERQUE NM MOSUNNY   56  26  31 CALM      30.32S
SALT LAKE CITY SUNNY     50  35  56 NW5       30.22F
LOS ANGELES CA CLOUDY    69  39  33 S14G24    30.00R
BOISE ID       SUNNY     43  34  70 NW6       30.21F
SEATTLE WA     MOSUNNY   60  47  61 S6        29.93S
$$

*** WEATHER ACROSS MANITOBA...SASKATCHEWAN AND ONTARIO ***
                ***ONTARIO***

CITY           SKY/WX    TMP DP  RH WIND       PRES   REMARKS
GERALDTON      LGT SNOW  19  18  93 SE5       29.88R WCI  13
THUNDER BAY    LGT SNOW  23  23 100 E7        29.85R WCI  15
SIOUX LOOKOUT  CLOUDY    21  19  93 VRB2      29.82R
TORONTO        MOCLDY    16  -2  45 E12G17    29.99R WCI   3
BIG TROUT LK   CLEAR      1   0  92 CALM      29.86R
PICKLE LAKE    FLURRIES  18  12  79 N2        29.83R
DRYDEN         CLOUDY    23  21  93 NE3       29.83R
KENORA         FLURRIES  19  18  93 NW9       29.87R WCI   9
$$
                *** MANITOBA***

CITY           SKY/WX    TMP DP  RH WIND       PRES   REMARKS
BRANDON        MOCLDY    34  30  86 W5        29.92R
DAUPHIN        CLEAR     28  25  86 SE7       29.88R WCI  21
ISLAND LAKE    FLURRIES  12   9  85 W3        29.86R
PILOT MOUND      N/A     28  28 100 S1          N/A
THE PAS        CLOUDY    25  19  80 S5        29.82S WCI  19
THOMPSON       FLURRIES  12   7  79 S6        29.78F WCI   3
WINNIPEG       MOCLDY    27  21  80 NW5       29.96R WCI  21
LYNN LAKE      LGT SNOW  18  18 100 SW7       29.68S WCI   8
CHURCHILL      CLOUDY    -8 -11  84 SW9       29.78F WCI -25
GILLAM         CLOUDY     5   1  85 S6        29.82S WCI  -6
$$
                ***SASKATCHEWAN***

CITY           SKY/WX    TMP DP  RH WIND       PRES   REMARKS
ESTEVAN        MOCLDY    37  32  81 E5        29.91F
KINDERSLEY     NOT AVBL
LLOYDMINSTER   MOCLDY    39  32  75 SW10      29.79S
PRINCE ALBERT  PTCLDY    39  30  70 SW6       29.79S
REGINA         MOCLDY    36  32  87 S5        29.88S
YORKTON        CLEAR     36  30  80 SW8       29.87R
N. BATTLEFORD  CLEAR     39  30  70 SW5       29.82F
LA RONGE       MOCLDY    34  32  93 S2        29.72R
SASKATOON      MOCLDY    36  30  80 SW8       29.84S
SWIFT CURRENT  CLEAR     41  34  75 W10       29.82S
$$
NOTE: THESE ARE AUTOMATED STATIONS WITH LIMITED QUALITY CONTROL
      "FAIR" INDICATES FEW OR NO CLOUDS BELOW 12,000 FEET WITH NO
      SIGNIFICANT WEATHER AND/OR OBSTRUCTIONS TO VISIBILITY.
      SKY/WX - SKY CONDITION AND SIGNIFICANT WEATHER.
      TMP - AIR TEMPERATURE.    DP   - DEWPOINT TEMPERATURE.
      RH  - RELATIVE HUMIDITY.  PRES - PRESSURE.
      HX  - HEAT INDEX.         WCI  - WIND CHILL INDEX.
$


USA.gov is the U.S. government's official web portal to all federal, state and local government web resources and services.